Station PACT2 - 8775792 - Packery Channel, TX Image indicating link to RSS feed of recent meteorological observations for station PACT2


Conditions at PACT2 as of
(7:18 pm CDT on 05/20/2024)
0018 GMT on 05/21/2024:
     

Click on the graph icon in the table below to see a time series plot of the last five days of that observation.

5-day plot - Wind Direction Wind Direction (WDIR): E ( 80 deg true )
5-day plot - Wind Speed Wind Speed (WSPD): 13.0 kts
5-day plot - Wind Gust Wind Gust (GST): 15.9 kts
5-day plot - Atmospheric Pressure Atmospheric Pressure (PRES):29.76 in
5-day plot - Air Temperature Air Temperature (ATMP): 83.5 °F
5-day plot - Water Temperature Water Temperature (WTMP): 87.1 °F
5-day plot - Wind Speed at 10 Meters Wind Speed at 10 meters (WSPD10M): 13.6 kts
5-day plot - Wind Speed at 20 Meters Wind Speed at 20 meters (WSPD20M): 13.6 kts
5-day plot -  Wind Speed, Wind Gust and Atmospheric Pressure Combined plot of Wind Speed, Gust, and Air Pressure
Previous observations
TIME
(CDT)
5-day plot - Wind Direction
WDIR
 
5-day plot - Wind Speed
WSPD
kts
5-day plot - Wind Gust
GST
kts
5-day plot - Wave Height
WVHT
ft
5-day plot - Dominant Wave Period
DPD
sec
5-day plot - Average Wave Period
APD
sec
5-day plot - Mean Wave Direction
MWD
 
5-day plot - Atmospheric Pressure
PRES
in
5-day plot - Pressure Tendency
PTDY
in
5-day plot - Air Temperature
ATMP
°F
5-day plot - Water Temperature
WTMP
°F
5-day plot - Dew Point
DEWP
°F
5-day plot - Salinity
SAL
psu
5-day plot - Visibility
VIS
nmi
5-day plot - Tide (above MLLW)
TIDE
ft
2024-05-20 07:12 pmENE 14.0 19.0----29.76- 83.5 86.9----
2024-05-20 07:06 pmENE 15.0 19.0----29.76- 83.7 86.9----
2024-05-20 07:00 pmENE 13.0 18.1----29.76-0.02 83.7 86.9----
2024-05-20 06:54 pmENE 14.0 17.1----29.76- 83.3 86.9----
2024-05-20 06:48 pmENE 14.0 17.1----29.76- 83.3 86.9----
2024-05-20 06:42 pmENE 15.9 18.1----29.76- 83.3 86.7----
2024-05-20 06:36 pm E 13.0 17.1----29.76- 83.7 86.7----
2024-05-20 06:30 pmENE 15.0 18.1----29.76- 83.5 86.7----
2024-05-20 06:24 pmENE 14.0 15.9----29.76- 83.5 86.7----
2024-05-20 06:18 pmENE 13.0 18.1----29.76- 83.7 86.5----
2024-05-20 06:12 pm E 14.0 18.1----29.77- 83.5 86.5----
2024-05-20 06:06 pm E 14.0 18.1----29.77- 83.5 86.5----
2024-05-20 06:00 pm E 13.0 18.1----29.77-0.04- 86.5----
2024-05-20 05:54 pmENE 13.0 15.9----29.77-- 86.4----
2024-05-20 05:48 pm E 14.0 17.1----29.77-- 86.4----
2024-05-20 05:42 pmENE 15.0 17.1----29.77-- 86.4----
2024-05-20 05:36 pmENE 13.0 17.1----29.77-- 86.4----
2024-05-20 05:30 pmENE 14.0 17.1----29.77- 83.7 86.4----
2024-05-20 05:24 pm E 13.0 17.1----29.77- 83.8 86.4----
2024-05-20 05:18 pm E 14.0 17.1----29.77- 83.5 86.2----
2024-05-20 05:12 pmENE 14.0 17.1----29.77- 83.7 86.2----
2024-05-20 05:06 pmENE 14.0 17.1----29.78- 83.8 86.2----
2024-05-20 05:00 pm E 13.0 17.1----29.78-0.04 83.8 86.2----
2024-05-20 04:54 pm E 13.0 17.1----29.78- 83.7 86.2----
2024-05-20 04:48 pmENE 14.0 18.1----29.77- 83.7 86.0----
2024-05-20 04:42 pmENE 15.0 17.1----29.77- 83.8 86.0----
2024-05-20 04:36 pm E 14.0 17.1----29.78- 83.8 86.0----
2024-05-20 04:30 pmENE 14.0 18.1----29.77- 83.7 86.0----
2024-05-20 04:24 pm E 14.0 17.1----29.78- 83.8 86.0----
2024-05-20 04:18 pmENE 14.0 17.1----29.78- 83.7 85.8----
2024-05-20 04:12 pm E 12.0 15.0----29.78- 84.0 85.8----
2024-05-20 04:06 pmENE 14.0 15.9----29.78- 83.8 85.8----
2024-05-20 04:00 pmENE 13.0 15.9----29.78-0.05 83.7 85.8----
2024-05-20 03:54 pmENE 14.0 15.9----29.79- 83.5 85.8----
2024-05-20 03:48 pm E 14.0 17.1----29.79- 83.7 85.8----
2024-05-20 03:42 pm E 13.0 15.9----29.79- 83.7 85.6----
2024-05-20 03:36 pm E 14.0 19.0----29.79- 83.8 85.6----
2024-05-20 03:30 pmENE 13.0 17.1----29.79-------
2024-05-20 03:24 pmENE 13.0 18.1----29.79-------
2024-05-20 03:18 pm E 13.0 17.1----29.80- 83.7 85.5----
2024-05-20 03:12 pm E 12.0 17.1----29.80- 84.0 85.5----
2024-05-20 03:06 pm E 13.0 15.9----29.80- 83.8 85.5----
2024-05-20 03:00 pmENE 14.0 17.1----29.80-0.04 83.7 85.5----
2024-05-20 02:54 pmENE 13.0 15.9----29.80- 83.7 85.5----
2024-05-20 02:48 pmENE 12.0 15.9----29.81- 83.3 85.3----
2024-05-20 02:42 pmENE 12.0 15.9----29.81- 83.5 85.3----
2024-05-20 02:36 pmENE 13.0 15.0----29.81- 83.1 85.3----
2024-05-20 02:30 pmENE 11.1 14.0----29.81- 83.5 85.3----
2024-05-20 02:24 pmENE 9.9 14.0----29.82- 83.5 85.3----
2024-05-20 02:18 pmENE 9.9 13.0----29.82- 83.5 85.1----
2024-05-20 02:12 pmENE 12.0 14.0----29.82- 83.1 85.1----
2024-05-20 02:06 pmENE 11.1 14.0----29.82- 83.7 85.1----
2024-05-20 02:00 pmENE 9.9 14.0----29.82-0.01 83.7 85.1----
2024-05-20 01:54 pm E 9.9 13.0----29.82- 83.5 84.9----
2024-05-20 01:48 pmENE 9.9 13.0----29.83- 83.5 84.9----
2024-05-20 01:42 pm E 8.0 11.1----29.83- 83.7 84.9----
2024-05-20 01:36 pmENE 9.9 13.0----29.83- 83.3 84.9----
2024-05-20 01:30 pmENE 9.9 12.0----29.83- 83.3 84.9----
2024-05-20 01:24 pmENE 8.0 12.0----29.83- 83.7 84.9----
2024-05-20 01:18 pm E 9.9 12.0----29.83- 83.7 84.9----
2024-05-20 01:12 pmENE 9.9 13.0----29.83- 83.5 84.9----
2024-05-20 01:06 pm E 9.9 12.0----29.83- 83.5 84.7----
2024-05-20 01:00 pm E 8.9 11.1----29.83+0.00 84.0 84.7----
2024-05-20 12:54 pm E 8.9 12.0----29.83- 83.8 84.7----
2024-05-20 12:48 pm E 8.9 12.0----29.83- 84.0 84.7----
2024-05-20 12:42 pm E 9.9 12.0----29.84- 83.8 84.7----
2024-05-20 12:36 pm E 8.0 11.1----29.84- 83.7 84.7----
2024-05-20 12:30 pm E 8.9 11.1----29.84- 83.3 84.6----
2024-05-20 12:24 pmESE 8.9 12.0----29.84- 84.6 84.6----
2024-05-20 12:18 pmESE 8.0 12.0----29.84- 84.6 84.6----
2024-05-20 12:12 pm E 8.9 11.1----29.84- 83.8 84.6----
2024-05-20 12:06 pm E 8.0 13.0----29.85- 83.5 84.6----
2024-05-20 12:00 pm E 8.9 12.0----29.84+0.02 83.7 84.6----
2024-05-20 11:54 amESE 8.0 11.1----29.84- 84.6 84.6----
2024-05-20 11:48 am E 7.0 12.0----29.84- 84.0 84.6----
2024-05-20 11:42 am E 8.0 12.0----29.84- 83.7 84.6----
2024-05-20 11:36 am E 8.0 11.1----29.84- 83.7 84.6----
2024-05-20 11:30 am E 8.9 13.0----29.84- 84.0 84.6----
2024-05-20 11:24 am E 11.1 14.0----29.83- 83.5 84.4----
2024-05-20 11:18 am E 9.9 12.0----29.83- 83.8 84.4----
2024-05-20 11:12 am E 9.9 15.0----29.83- 84.2 84.4----
2024-05-20 11:06 amESE 9.9 14.0----29.83- 84.2 84.4----
2024-05-20 11:00 am E 11.1 14.0----29.83+0.02 84.0 84.4----
2024-05-20 10:54 am E 11.1 15.0----29.83- 83.8 84.4----
2024-05-20 10:48 amESE 12.0 15.0----29.84- 83.5 84.4----
2024-05-20 10:42 amESE 12.0 14.0----29.83- 83.5 84.4----
2024-05-20 10:36 amESE 11.1 15.0----29.83- 83.3 84.4----
2024-05-20 10:30 amESE 11.1 13.0----29.84- 83.7 84.4----
2024-05-20 10:24 amESE 8.9 11.1----29.84- 83.3 84.4----
2024-05-20 10:18 amESE 11.1 14.0----29.84- 83.5 84.4----
2024-05-20 10:12 amESE 11.1 13.0----29.84- 83.3 84.4----
2024-05-20 10:06 am E 9.9 12.0----29.84- 83.3 84.4----
2024-05-20 10:00 am E 9.9 12.0----29.84+0.04 83.1 84.4----
2024-05-20 09:54 amESE 8.0 9.9----29.84- 83.7 84.4----
2024-05-20 09:48 amESE 7.0 11.1----29.84- 83.7 84.4----
2024-05-20 09:42 amESE 8.0 9.9----29.84- 83.5 84.4----
2024-05-20 09:36 amESE 7.0 11.1----29.83- 83.5 84.4----
2024-05-20 09:30 amESE 8.0 11.1----29.83- 83.3 84.4----
2024-05-20 09:24 amESE 7.0 11.1----29.83- 82.9 84.4----
2024-05-20 09:18 am E 8.9 12.0----29.83- 82.9 84.4----
2024-05-20 09:12 amESE 8.9 12.0----29.83- 82.9 84.4----
2024-05-20 09:06 amESE 8.0 12.0----29.83- 83.3 84.4----
2024-05-20 09:00 am SE 8.9 13.0----29.82+0.03 82.9 84.4----
2024-05-20 08:54 amESE 11.1 14.0----29.82- 82.9 84.4----
2024-05-20 08:48 amESE 9.9 14.0----29.82- 82.9 84.4----
2024-05-20 08:42 amESE 9.9 12.0----29.82- 82.9 84.4----
2024-05-20 08:36 amESE 8.9 11.1----29.82- 82.6 84.4----
2024-05-20 08:30 am E 8.9 13.0----29.82- 82.4 84.4----
2024-05-20 08:24 amESE 7.0 12.0----29.82- 82.4 84.4----
2024-05-20 08:18 amESE 8.9 12.0----29.81- 82.0 84.4----
2024-05-20 08:12 amESE 8.0 11.1----29.82- 82.0 84.4----
2024-05-20 08:06 amESE 8.0 9.9----29.81- 82.0 84.4----
2024-05-20 08:00 amESE 8.0 11.1----29.81+0.03 82.0 84.4----
2024-05-20 07:54 amESE 8.9 11.1----29.81- 81.9 84.4----
2024-05-20 07:48 amESE 8.0 12.0----29.81- 81.9 84.4----
2024-05-20 07:42 amESE 9.9 13.0----29.81- 81.7 84.4----
2024-05-20 07:36 am E 9.9 12.0----29.81- 81.9 84.4----
2024-05-20 07:30 am E 8.0 11.1----29.81- 81.7 84.4----
2024-05-20 07:24 amESE 8.0 12.0----29.81- 81.5 84.4----
2024-05-20 07:18 amESE 7.0 12.0----29.80- 81.5 84.4----
2024-05-20 07:12 amESE 7.0 11.1----29.80- 81.3 84.4----
2024-05-20 07:06 amESE 8.0 11.1----29.80- 81.1 84.4----
2024-05-20 07:00 am E 8.0 11.1----29.80+0.00 81.1 84.4----
2024-05-20 06:54 amESE 8.0 9.9----29.80- 81.1 84.4----
2024-05-20 06:48 amESE 7.0 11.1----29.80- 81.1 84.4----
2024-05-20 06:42 amESE 7.0 12.0----29.79- 81.0 84.4----
2024-05-20 06:36 amESE 8.0 12.0----29.79- 81.0 84.4----
2024-05-20 06:30 amESE 8.0 9.9----29.79- 81.0 84.4----
2024-05-20 06:24 amESE 7.0 11.1----29.80- 81.0 84.6----
2024-05-20 06:18 amESE 8.9 12.0----29.80- 81.0 84.6----
2024-05-20 06:12 am E 8.9 12.0----29.80- 81.0 84.6----
2024-05-20 06:06 am E 8.0 11.1----29.79- 81.0 84.6----
2024-05-20 06:00 am E 8.0 13.0----29.79-0.02 81.0 84.6----
2024-05-20 05:54 am E 11.1 12.0----29.79- 81.0 84.6----
2024-05-20 05:48 am E 8.0 13.0----29.79- 81.0 84.6----
2024-05-20 05:42 am E 8.9 12.0----29.79- 81.0 84.6----
2024-05-20 05:36 am E 8.9 13.0----29.79- 81.0 84.6----
2024-05-20 05:30 am E 11.1 13.0----29.79- 81.0 84.6----
2024-05-20 05:24 am E 9.9 13.0----29.79- 81.0 84.6----
2024-05-20 05:18 am E 8.9 12.0----29.79- 81.0 84.6----
2024-05-20 05:12 am E 8.9 12.0----29.79- 81.0 84.7----
2024-05-20 05:06 am E 9.9 13.0----29.79- 81.0 84.7----
2024-05-20 05:00 am E 8.9 13.0----29.78-0.06 80.8 84.7----
2024-05-20 04:54 am E 9.9 14.0----29.78- 81.0 84.7----
2024-05-20 04:48 am E 9.9 15.0----29.78- 80.8 84.7----
2024-05-20 04:42 am E 12.0 14.0----29.78- 80.8 84.7----
2024-05-20 04:36 am E 9.9 14.0----29.78- 80.8 84.7----
2024-05-20 04:30 am E 11.1 13.0----29.78- 80.8 84.7----
2024-05-20 04:24 am E 8.9 13.0----29.78- 80.8 84.7----
2024-05-20 04:18 am E 11.1 14.0----29.78- 80.8 84.7----
2024-05-20 04:12 am E 8.9 11.1----29.79- 80.6 84.7----
2024-05-20 04:06 am E 8.9 11.1----29.79- 80.8 84.7----
2024-05-20 04:00 am E 9.9 12.0----29.80-0.05 80.8 84.7----
2024-05-20 03:54 am E 9.9 12.0----29.80- 80.8 84.9----
2024-05-20 03:48 am E 8.0 11.1----29.80- 80.8 84.9----
2024-05-20 03:42 am E 8.9 12.0----29.80- 80.6 84.9----
2024-05-20 03:36 am E 8.9 12.0----29.80- 80.8 84.9----
2024-05-20 03:30 am E 8.0 12.0----29.80- 80.6 84.9----
2024-05-20 03:24 am E 8.9 12.0----29.80- 80.8 84.9----
2024-05-20 03:18 am E 8.9 13.0----29.80- 80.8 84.9----
2024-05-20 03:12 am E 8.0 11.1----29.81- 80.8 84.9----
2024-05-20 03:06 am E 8.9 11.1----29.81- 81.0 84.9----
2024-05-20 03:00 am E 8.9 12.0----29.82-0.05 81.0 84.9----
2024-05-20 02:54 am E 8.0 12.0----29.82- 81.0 84.9----
2024-05-20 02:48 am E 8.0 12.0----29.82- 81.0 84.9----
2024-05-20 02:42 am E 8.0 11.1----29.83- 81.0 84.9----
2024-05-20 02:36 am E 9.9 13.0----29.83- 81.1 84.9----
2024-05-20 02:30 am E 8.9 11.1----29.83- 81.1 84.9----
2024-05-20 02:24 am E 8.9 12.0----29.83- 81.1 84.9----
2024-05-20 02:18 am E 9.9 12.0----29.83- 81.1 84.9----
2024-05-20 02:12 am E 8.0 11.1----29.83- 81.1 84.9----
2024-05-20 02:06 am E 9.9 13.0----29.83- 81.0 84.9----
2024-05-20 02:00 am E 11.1 14.0----29.84-0.03 81.1 84.9----
2024-05-20 01:54 am E 8.9 11.1----29.84- 81.0 84.9----
2024-05-20 01:48 am E 8.9 12.0----29.84- 81.0 85.1----
2024-05-20 01:42 am E 8.0 12.0----29.85- 81.0 85.1----
2024-05-20 01:36 am E 9.9 13.0----29.85- 81.1 85.3----
2024-05-20 01:30 am E 9.9 12.0----29.85- 81.0 85.3----
2024-05-20 01:24 amESE 8.9 11.1----29.85- 81.0 85.3----
2024-05-20 01:18 am E 8.0 14.0----29.85- 81.1 85.3----
2024-05-20 01:12 am E 11.1 14.0----29.85- 81.1 85.3----
2024-05-20 01:06 am E 12.0 15.9----29.85- 81.1 85.3----
2024-05-20 01:00 am E 12.0 15.0----29.85+0.00 81.1 85.3----
2024-05-20 12:54 am E 9.9 14.0----29.85- 81.1 85.3----
2024-05-20 12:48 am E 12.0 14.0----29.85- 81.1 85.3----
2024-05-20 12:42 am E 9.9 14.0----29.85- 81.1 85.3----
2024-05-20 12:36 am E 12.0 14.0----29.85- 81.1 85.3----
2024-05-20 12:30 am E 12.0 15.0----29.85- 81.1 85.1----
2024-05-20 12:24 am E 9.9 14.0----29.86- 81.3 85.1----
2024-05-20 12:18 am-------29.86-- 84.9----
2024-05-20 12:12 am-------29.86-- 84.7----
2024-05-20 12:06 am-------29.86-- 84.9----
2024-05-20 12:00 am E 12.0 15.0----29.86+0.03 81.3 84.9----
2024-05-19 11:54 pm E 11.1 15.0----29.86- 81.3 84.9----
2024-05-19 11:48 pm E 12.0 14.0----29.86- 81.3 84.9----
2024-05-19 11:42 pm E 12.0 15.9----29.87- 81.3 84.9----
2024-05-19 11:36 pm E 9.9 13.0----29.87- 81.1 84.9----
2024-05-19 11:30 pm E 12.0 14.0----29.87- 81.3 84.9----
2024-05-19 11:24 pm E 12.0 15.9----29.87- 81.1 84.9----
2024-05-19 11:18 pm E 14.0 15.0----29.86- 81.1 84.9----
2024-05-19 11:12 pm E 12.0 15.0----29.87- 81.3 84.9----
2024-05-19 11:06 pm E 13.0 15.0----29.87- 81.3 85.1----
2024-05-19 11:00 pm E 12.0 14.0----29.87+0.04 81.3 85.1----
2024-05-19 10:54 pm E 12.0 15.9----29.87- 81.5 85.1----
2024-05-19 10:48 pm E 13.0 15.9----29.87- 81.3 85.1----
2024-05-19 10:42 pm E 14.0 15.0----29.86- 81.3 85.1----
2024-05-19 10:36 pm E 12.0 15.0----29.86- 81.1 85.1----
2024-05-19 10:30 pm E 11.1 14.0----29.86- 81.1 85.1----
2024-05-19 10:24 pm E 12.0 15.0----29.85- 81.3 85.1----
2024-05-19 10:18 pm E 12.0 15.0----29.85-- 85.1----
2024-05-19 10:12 pmENE 13.0 15.0----29.85-- 85.3----
2024-05-19 10:06 pm E 12.0 17.1----29.85-- 85.3----
2024-05-19 10:00 pm E 13.0 15.0----29.85+0.01 81.1 85.3----
2024-05-19 09:54 pm E 12.0 17.1----29.85- 81.1 85.3----
2024-05-19 09:48 pmENE 13.0 15.9----29.85- 81.0 85.3----
2024-05-19 09:42 pmENE 12.0 15.9----29.85- 81.1 85.5----
2024-05-19 09:36 pmENE 12.0 15.0----29.84- 81.0 85.5----
2024-05-19 09:30 pmENE 13.0 17.1----29.84- 81.1 85.5----
2024-05-19 09:24 pmENE 12.0 15.0----29.84- 81.3 85.5----
2024-05-19 09:18 pmENE 14.0 15.9----29.84- 81.1 85.6----
2024-05-19 09:12 pmENE 14.0 17.1----29.84- 81.3 85.6----
2024-05-19 09:06 pmENE 15.0 17.1----29.84- 81.3 85.8----
2024-05-19 09:00 pmENE 13.0 15.0----29.84- 81.3 86.0----
2024-05-19 08:54 pmENE 12.0 15.9----29.84- 81.3 86.0----
2024-05-19 08:48 pmENE 14.0 17.1----29.84- 81.1 86.0----
2024-05-19 08:42 pmENE 12.0 15.9----29.84- 81.3 86.0----
2024-05-19 08:36 pmENE 15.0 17.1----29.83- 81.5 86.0----
2024-05-19 08:30 pmENE 15.9 18.1----29.83-- 86.2----
2024-05-19 08:24 pmENE 14.0 17.1----29.83-- 86.2----
2024-05-19 08:18 pmENE 14.0 17.1----29.83-- 86.2----
2024-05-19 08:12 pmENE 14.0 17.1----29.83-- 86.2----
2024-05-19 08:06 pmENE 13.0 17.1----29.83-- 86.2----
2024-05-19 08:00 pmENE 14.0 18.1----29.83-0.01- 86.2----
2024-05-19 07:54 pmENE 14.0 17.1----29.83-- 86.2----
2024-05-19 07:48 pmENE 15.9 18.1----29.82- 81.3 86.2----
2024-05-19 07:42 pmENE 15.9 17.1----29.82- 81.1 86.2----
2024-05-19 07:36 pmENE 14.0 15.9----29.83- 81.3 86.2----
2024-05-19 07:30 pm NE 14.0 15.0----29.83- 81.3 86.0----
2024-05-19 07:24 pmENE 12.0 15.0----29.83- 81.5 86.0----
2024-05-19 07:18 pm---------- 86.0----
2024-05-19 07:12 pm---------- 86.0----
2024-05-19 07:06 pm---------- 86.0----
2024-05-19 07:00 pmENE 12.0 15.0----29.84-0.03- 86.0----
2024-05-19 06:54 pmENE 13.0 14.0----29.84-- 85.8----